Redcliffe Observation History
Time Wind Speed Temp Pressure Rel. Hum Rain
05/10:30pm SW 6-7 kts 13.7°c 1026.2 hPa 91% 0.0mm
05/10:00pm SW 6-7 kts 14.1°c 1026.3 hPa 93% 0.0mm
05/09:30pm WSW 6-7 kts 14.3°c 1026.5 hPa 91% 0.0mm
05/09:00pm WSW 7-8 kts 14.4°c 1026.5 hPa 90% 0.0mm
05/08:30pm SW 4-6 kts 15.1°c 1026.4 hPa 88% 0.0mm
05/08:00pm SSW 4-5 kts 16.0°c 1026.3 hPa 85% 0.0mm
05/07:30pm S 5-6 kts 16.5°c 1026.2 hPa 83% 0.0mm
05/07:00pm S 5-6 kts 17.4°c 1026.1 hPa 80% 0.0mm
05/06:30pm SE 7-8 kts 18.0°c 1025.8 hPa 76% 0.0mm
05/06:00pm ESE 8-10 kts 18.1°c 1025.4 hPa 77% 0.0mm
05/05:30pm ESE 9-10 kts 18.3°c 1025.2 hPa 75% 0.0mm
05/05:00pm SE 9-10 kts 18.5°c 1025.0 hPa 73% 0.0mm
05/04:30pm SE 11-13 kts 18.8°c 1024.9 hPa 73% 0.0mm
05/04:00pm SE 13-14 kts 19.2°c 1024.8 hPa 69% 0.0mm
05/03:30pm SE 10-11 kts 19.6°c 1024.9 hPa 67% 0.0mm
05/03:00pm SE 9-11 kts 19.8°c 1024.9 hPa 68% 0.0mm
05/02:30pm SE 10-13 kts 20.1°c 1025.0 hPa 67% 0.0mm
05/02:00pm SE 10-12 kts 20.2°c 1025.1 hPa 62% 0.0mm
05/01:30pm SE 13-15 kts 20.2°c 1025.4 hPa 64% 0.0mm
05/01:00pm SE 13-15 kts 20.1°c 1025.8 hPa 64% 0.0mm
05/12:30pm SE 13-16 kts 20.1°c 1026.2 hPa 65% 0.0mm
05/12:00pm SSE 9-11 kts 20.5°c 1026.8 hPa 60% 0.0mm
05/11:30am SSE 10-12 kts 20.2°c 1027.3 hPa 59% 0.0mm
05/11:00am SSE 10-12 kts 20.4°c 1027.6 hPa 57% 0.0mm
05/10:30am S 11-14 kts 19.7°c 1028.0 hPa 57% 0.0mm
05/10:00am SSW 9-13 kts 19.4°c 1028.2 hPa 58% 0.0mm
05/09:30am SSW 11-15 kts 18.7°c 1028.4 hPa 60% 0.0mm
05/09:00am S 9-13 kts 17.9°c 1028.4 hPa 61% 0.0mm
05/08:30am SSW 10-14 kts 16.8°c 1028.2 hPa 64% 0.0mm
05/08:00am SSW 11-15 kts 16.0°c 1027.9 hPa 66% 0.0mm
05/07:30am SSW 8-12 kts 14.8°c 1027.7 hPa 70% 0.0mm
05/07:00am SSW 8-12 kts 14.0°c 1027.4 hPa 73% 0.0mm
05/06:30am SSW 8-11 kts 13.8°c 1027.0 hPa 73% 0.0mm
05/06:00am SSW 9-13 kts 13.7°c 1026.8 hPa 73% 0.0mm
05/05:30am SSW 9-14 kts 13.9°c 1026.6 hPa 72% 0.0mm
05/05:00am SSW 9-14 kts 14.2°c 1026.5 hPa 71% 0.0mm
05/04:30am SW 8-12 kts 14.4°c 1026.5 hPa 71% 0.0mm
05/04:00am SW 9-14 kts 14.6°c 1026.5 hPa 68% 0.0mm
05/03:30am SSW 8-11 kts 15.0°c 1026.5 hPa 68% 0.0mm
05/03:00am SSW 8-13 kts 14.8°c 1026.6 hPa 69% 0.0mm
05/02:30am SSW 7-10 kts 14.4°c 1026.8 hPa 73% 0.0mm
05/02:00am SW 8-10 kts 13.8°c 1026.8 hPa 74% 0.0mm
05/01:30am SW 8-10 kts 14.0°c 1027.0 hPa 74% 0.0mm
05/01:00am SW 7-8 kts 14.3°c 1027.6 hPa 74% 0.0mm
05/12:30am SW 7-9 kts 14.5°c 1027.9 hPa 74% 0.0mm
05/12:00am WSW 7-8 kts 14.8°c 1028.0 hPa 74% 0.0mm
Time Wind Speed Temp Pressure Rel. Hum Rain
04/11:30pm SW 6-8 kts 15.0°c 1028.2 hPa 73% 0.0mm
04/11:00pm WSW 6-7 kts 15.3°c 1028.5 hPa 74% 0.0mm
04/10:30pm S 7-11 kts 15.3°c 1028.6 hPa 73% 0.0mm
04/10:00pm SSW 5-8 kts 15.3°c 1028.7 hPa 73% 0.0mm
04/09:30pm S 12-15 kts 15.3°c 1028.6 hPa 74% 0.0mm
04/09:00pm S 10-13 kts 15.4°c 1028.5 hPa 73% 0.0mm
04/08:30pm S 11-14 kts 15.9°c 1028.7 hPa 71% 0.0mm
04/08:00pm SSW 7-10 kts 15.7°c 1028.4 hPa 70% 0.0mm
04/07:30pm S 12-14 kts 16.1°c 1028.4 hPa 69% 0.0mm
04/07:00pm S 11-13 kts 16.4°c 1028.0 hPa 68% 0.0mm
04/06:30pm S 13-15 kts 17.2°c 1027.9 hPa 64% 0.0mm
04/06:00pm S 14-16 kts 17.6°c 1027.6 hPa 62% 0.0mm
04/05:30pm SSE 14-16 kts 17.5°c 1027.5 hPa 66% 0.0mm
04/05:00pm SSE 14-16 kts 17.8°c 1027.2 hPa 68% 0.0mm
04/04:30pm SSE 13-16 kts 18.3°c 1026.9 hPa 64% 0.0mm
04/04:00pm SSE 15-18 kts 18.6°c 1026.7 hPa 63% 0.0mm
04/03:30pm SSE 15-18 kts 18.9°c 1026.6 hPa 63% 0.0mm
04/03:00pm SSE 14-16 kts 19.4°c 1026.6 hPa 61% 0.0mm
04/02:30pm SSE 17-20 kts 19.1°c 1026.6 hPa 61% 0.0mm
04/02:00pm SSE 18-20 kts 20.0°c 1026.6 hPa 62% 0.0mm
04/01:30pm SSE 15-18 kts 20.1°c 1026.6 hPa 60% 0.0mm
04/01:00pm SSE 12-15 kts 20.1°c 1026.8 hPa 56% 0.0mm
04/12:30pm SE 12-15 kts 20.3°c 1027.1 hPa 54% 0.0mm
04/12:00pm SSE 12-14 kts 20.4°c 1027.4 hPa 53% 0.0mm
04/11:30am S 13-15 kts 20.4°c 1027.7 hPa 51% 0.0mm
04/11:00am S 12-15 kts 20.3°c 1028.0 hPa 50% 0.0mm
04/10:30am S 13-17 kts 18.9°c 1028.3 hPa 50% 0.0mm
04/10:00am SSW 12-16 kts 18.5°c 1028.3 hPa 50% 0.0mm
04/09:30am SSW 10-16 kts 18.2°c 1028.2 hPa 47% 0.0mm
04/09:00am SSW 10-16 kts 17.4°c 1028.1 hPa 49% 0.0mm
04/08:30am SSW 11-17 kts 16.1°c 1027.6 hPa 54% 0.0mm
04/08:00am SW 7-15 kts 14.7°c 1027.7 hPa 57% 0.0mm
04/07:30am SW 9-14 kts 13.3°c 1027.3 hPa 62% 0.0mm
04/07:00am SW 8-12 kts 12.3°c 1027.1 hPa 64% 0.0mm
04/06:30am SW 8-12 kts 12.3°c 1026.7 hPa 62% 0.0mm
04/06:00am SW 7-9 kts 12.7°c 1026.2 hPa 63% 0.0mm
04/05:30am SW 9-13 kts 12.7°c 1025.7 hPa 65% 0.0mm
04/05:00am SSW 11-16 kts 12.4°c 1025.3 hPa 68% 0.0mm
04/04:30am SSW 9-13 kts 12.3°c 1025.0 hPa 70% 0.0mm
04/04:00am SSW 9-15 kts 12.2°c 1024.9 hPa 71% 0.0mm
04/03:30am SW 8-10 kts 12.4°c 1024.7 hPa 71% 0.0mm
04/03:00am SW 9-13 kts 12.0°c 1024.8 hPa 74% 0.0mm
04/02:30am SW 9-13 kts 12.2°c 1024.9 hPa 73% 0.0mm
04/02:00am SSW 9-13 kts 12.0°c 1024.9 hPa 74% 0.0mm
04/01:30am SW 6-9 kts 11.8°c 1025.1 hPa 76% 0.0mm
04/01:00am SW 7-9 kts 11.8°c 1024.9 hPa 75% 0.0mm
04/12:30am SW 7-10 kts 11.9°c 1024.9 hPa 75% 0.0mm
04/12:00am WSW 8-10 kts 11.8°c 1025.0 hPa 77% 0.0mm
Time Wind Speed Temp Pressure Rel. Hum Rain
03/11:30pm WSW 8-10 kts 11.9°c 1025.0 hPa 78% 0.0mm
03/11:00pm WSW 7-8 kts 11.9°c 1025.2 hPa 77% 0.0mm
03/10:30pm WSW 7-9 kts 12.3°c 1025.4 hPa 76% 0.0mm
03/10:00pm SSW 9-13 kts 12.4°c 1025.2 hPa 77% 0.0mm
03/09:30pm S 12-18 kts 12.8°c 1025.3 hPa 78% 0.0mm
03/09:00pm SW 5-7 kts 13.2°c 1025.0 hPa 78% 0.0mm
03/08:30pm S 9-10 kts 14.0°c 1024.8 hPa 73% 0.0mm
03/08:00pm SSE 9-11 kts 15.6°c 1024.4 hPa 65% 0.0mm
03/07:30pm SSE 11-13 kts 16.8°c 1023.9 hPa 63% 0.0mm
03/07:00pm ESE 10-12 kts 16.9°c 1023.4 hPa 62% 0.0mm
03/06:30pm E 9-10 kts 16.8°c 1022.6 hPa 58% 0.0mm
03/06:00pm E 11-13 kts 16.9°c 1022.2 hPa 54% 0.0mm
03/05:30pm E 10-11 kts 17.0°c 1021.5 hPa 53% 0.0mm
03/05:00pm ENE 9-10 kts 17.4°c 1021.0 hPa 50% 0.0mm
03/04:30pm E 8-10 kts 17.9°c 1020.6 hPa 46% 0.0mm
03/04:00pm ENE 7-8 kts 18.4°c 1020.2 hPa 39% 0.0mm
03/03:30pm E 7-8 kts 18.5°c 1020.0 hPa 39% 0.0mm
03/03:00pm E 7 kts 18.5°c 1019.8 hPa 42% 0.0mm
03/02:30pm NE 7-8 kts 19.1°c 1019.9 hPa 46% 0.0mm
03/02:00pm SE 9-10 kts 19.3°c 1019.8 hPa 39% 0.0mm
03/01:30pm SE 8-9 kts 20.1°c 1019.8 hPa 38% 0.0mm
03/01:00pm SSE 8-9 kts 20.1°c 1020.1 hPa 35% 0.0mm
03/12:30pm SSE 9-11 kts 19.6°c 1020.4 hPa 34% 0.0mm
03/12:00pm SSW 7-11 kts 19.1°c 1020.8 hPa 39% 0.0mm
03/11:30am SW 7-10 kts 18.8°c 1021.1 hPa 39% 0.0mm
03/11:00am SW 7-12 kts 18.0°c 1021.3 hPa 40% 0.0mm
03/10:30am WSW 7-10 kts 17.1°c 1021.6 hPa 42% 0.0mm
03/10:00am SW 7-10 kts 16.2°c 1021.8 hPa 45% 0.0mm
03/09:30am SW 7-10 kts 15.6°c 1021.9 hPa 48% 0.0mm
03/09:00am SW 9-12 kts 14.5°c 1021.8 hPa 51% 0.0mm
03/08:30am WSW 8-14 kts 13.5°c 1021.8 hPa 53% 0.0mm
03/08:00am WSW 6-10 kts 12.5°c 1021.7 hPa 55% 0.0mm
03/07:30am W 7-10 kts 11.4°c 1021.5 hPa 57% 0.0mm
03/07:00am WNW 7-10 kts 10.7°c 1021.2 hPa 59% 0.0mm
03/06:30am W 8-12 kts 9.8°c 1020.9 hPa 63% 0.0mm
03/06:00am W 7-8 kts 9.3°c 1020.8 hPa 64% 0.0mm
03/05:30am WNW 5-7 kts 9.4°c 1020.4 hPa 62% 0.0mm
03/05:00am WNW 5-7 kts 9.8°c 1020.0 hPa 61% 0.0mm
03/04:30am NW 5-8 kts 9.9°c 1019.7 hPa 61% 0.0mm
03/04:00am NW 5-6 kts 9.9°c 1019.7 hPa 63% 0.0mm
03/03:30am NW 1-4 kts 9.2°c 1019.7 hPa 65% 0.0mm
03/03:00am W 4 kts 10.3°c 1019.8 hPa 56% 0.0mm
03/02:30am W 1-3 kts 10.3°c 1019.7 hPa 61% 0.0mm
03/02:00am W 2-5 kts 11.4°c 1019.5 hPa 53% 0.0mm
03/01:30am W 5-7 kts 11.8°c 1019.8 hPa 52% 0.0mm
03/01:00am NE 4-7 kts 11.3°c 1019.9 hPa 56% 0.0mm
03/12:30am WSW 4 kts 12.6°c 1019.9 hPa 47% 0.0mm
03/12:00am WSW 8-12 kts 13.4°c 1020.1 hPa 45% 0.0mm